Regional Weather Roundup
Issued by NWS Cleveland, OH

Home | Current Version | Previous Version | Text Only | Print | Product List | Glossary Off
Versions: 1 2 3 4 5 6 7 8 9 10 11 12 13 14 15 16 17 18 19 20 21 22 23 24 25 26 27 28 29 30 31 32 33 34 35 36 37 38 39 40 41 42 43 44 45 46 47 48 49 50

407
ASUS41 KCLE 262010
RWRCLE
OHIO REGIONAL WEATHER ROUNDUP
NATIONAL WEATHER SERVICE WILMINGTON, OH
400 PM EDT THU MAY 26 2016

NOTE: "FAIR" INDICATES FEW OR NO CLOUDS BELOW 12,000 FEET WITH NO
SIGNIFICANT WEATHER AND/OR OBSTRUCTIONS TO VISIBILITY.

OHZ001>008-015>018-024>027-034-035-043-044-262100-
   NORTHWEST OHIO

CITY           SKY/WX    TMP DP  RH WIND       PRES   REMARKS
DEFIANCE       FAIR      84  63  49 SW10      29.92F
FINDLAY        PTSUNNY   82  64  54 SW15      29.94F
TOLEDO EXPRESS FAIR      85  63  47 SW7       29.91F
TOLEDO EXEC    FAIR      85  62  46 SW14      29.92F
LIMA           FAIR      80  67  64 S9        29.96F
$$

OHZ009>014-019>023-028>033-038-089-262100-
   NORTHEAST OHIO

CITY           SKY/WX    TMP DP  RH WIND       PRES   REMARKS
CLE-HOPKINS    PTSUNNY   82  63  52 S12       29.99F
CLE-LAKEFRONT  FAIR      84  62  47 S17G23    29.96F
CUY CO. ARPT   PTSUNNY   86  66  51 SW17      29.99F
LORAIN-ELYRIA  FAIR      82  62  50 SW16      29.98F
ASHTABULA      FAIR      83  63  50 SW10G21   30.01F
AKRON-CANTON   PTSUNNY   79  63  57 S9        30.02F
WOOSTER        FAIR      81  63  54 SW15      30.01F
MANSFIELD      PTSUNNY   81  63  54 S15       30.01F
YOUNGSTOWN     PTSUNNY   81  62  52 SW15G21   30.03F
$$

OHZ042-051>053-060>062-070>072-077>081-262100-
  SOUTHWEST OHIO

CITY           SKY/WX    TMP DP  RH WIND       PRES   REMARKS
CINC-COVINGTON TSTM      68  65  90 S8        30.02F
CINC-LUNKEN    TSTM      71  65  81 W18G30    30.04R
HAMILTON       TSTM      73  69  87 VRB7      30.00F FOG
DAYTON         PTSUNNY   76  66  71 S13       29.99F
WRIGHT-PAT AFB CLOUDY    78  68  71 S12       29.99F
DAYTON GENERAL CLOUDY    77  65  66 S13       30.00F
WILMINGTON     FAIR      77  66  68 S14       30.02F
$$

OHZ036-037-039>041-045>050-054>059-063>069-073>076-082>088-262100-
  CENTRAL AND SOUTHEAST OHIO

CITY           SKY/WX    TMP DP  RH WIND       PRES   REMARKS
COLUMBUS       CLOUDY    79  65  62 S13       30.01F
OSU AIRPORT    PTSUNNY   80  66  62 S14       30.00F
BOLTON FIELD   CLOUDY    81  66  61 S13G18    30.02F
RICKENBACK AFB PTSUNNY   79  66  63 S12       30.01F
NEWARK         PTSUNNY   80  65  59 S12       30.02F
MARION         FAIR      81  65  58 S13       29.99F
LANCASTER      PTSUNNY   79  65  62 S14       30.03F
ZANESVILLE     PTSUNNY   82  65  56 S13       30.04F
NEW PHILLY     FAIR      82  63  52 S9G18     30.03F
$$




USA.gov is the U.S. government's official web portal to all federal, state and local government web resources and services.